Regional Weather Roundup
Issued by NWS

Home | Current Version | Previous Version | Graphics & Text | Print | Product List | Glossary On
Versions: 1 2 3 4 5 6 7 8 9 10 11 12 13 14 15 16 17 18 19 20 21 22 23 24 25 26 27 28 29 30 31 32 33 34 35 36 37 38 39 40 41 42 43 44 45 46 47 48 49 50
000
ASUS45 KTFX 131710
RWRMT
MONTANA REGIONAL WEATHER ROUNDUP
NATIONAL WEATHER SERVICE GREAT FALLS MT
1000 AM MST SAT FEB 13 2016

NOTE: "FAIR" INDICATES FEW OR NO CLOUDS BELOW 12000 FEET WITH NO
SIGNIFICANT WEATHER AND/OR OBSTRUCTIONS TO VISIBILITY.

MTZ001>007-043-131800-
WEST OF THE DIVIDE

CITY           SKY/WX    TMP DP  RH WIND       PRES   REMARKS
KALISPELL      CLOUDY    38  32  79 S13       30.06R WCI  30
MISSOULA       LGT RAIN  37  36  96 N9        30.16S WCI  30
BUTTE          CLOUDY    33  23  66 NW10      30.06R WCI  25
MULLAN PASS    SNOW      26  25  96 NW8       30.10R VSB 1/4 WCI  18
ANACONDA         N/A     36  23  60 W16G32    30.06S WCI  26
DEER LODGE       N/A     36  28  75 SW5       30.09R
HAMILTON         N/A     39  27  60 NE6       30.16R
PLAINS           N/A     42  36  79 NW8       30.15R
$$

MTZ008-052>055-131800-
SOUTHWEST MONTANA

CITY           SKY/WX    TMP DP  RH WIND       PRES   REMARKS
BOZEMAN        CLOUDY    33  32  96 SE10      30.05S WCI  25
DILLON         CLOUDY    38  21  50 W22       30.08R WCI  27
ENNIS          CLOUDY    34  27  75 NW16G33   30.14R WCI  23
TWIN BRIDGES     N/A     37  23  57 S7        30.07R WCI  31
$$

MTZ009-010-012-014-046-048-049-054-131800-
EAST SLOPES AND CENTRAL MONTANA

CITY           SKY/WX    TMP DP  RH WIND       PRES   REMARKS
CUT BANK       MOSUNNY   42  26  53 W25G32    29.88R
GREAT FALLS    CLOUDY    41  26  55 SW20      29.90F
MALMSTROM AFB  CLOUDY    43  26  52 SW13G21   29.92R
HELENA         CLOUDY    41  25  53 W25G37    29.97F
CHOTEAU          N/A     46  21  36 W23G47    29.92R
CONRAD           N/A     43  29  58 SW17      29.91S
$$

MTZ011-013-016-021-045-047-050-051-131800-
NORTH CENTRAL MONTANA

CITY           SKY/WX    TMP DP  RH WIND       PRES   REMARKS
HAVRE          CLOUDY    34  31  88 NW7G20    29.83S WCI  28
LEWISTOWN      CLOUDY    43  32  65 W9        29.88R
N BAR RANCH    CLOUDY    43  25  49 NW29G37   29.85F
CHINOOK          N/A    N/A N/A N/A S3        29.85S
$$

MTZ017>020-022>027-061-062-131800-
NORTHEAST MONTANA

CITY           SKY/WX    TMP DP  RH WIND       PRES   REMARKS
GLASGOW        MIX PCPN  22  18  85 E6        29.86R FOG     WCI  14
JORDAN           N/A     34  31  88 NW3       29.82R
SIDNEY         CLOUDY    23  16  74 SE16      29.90F WCI  10
PLENTYWOOD       N/A     18  12  79 SE16      29.89F WCI   3
POPLAR           N/A     25  18  74 E6        29.87F WCI  18
$$

MTZ028>42-056>058-131800-
SOUTHCENTRAL AND SOUTHEAST MONTANA

CITY           SKY/WX    TMP DP  RH WIND       PRES   REMARKS
BAKER          CLOUDY    28  23  81 SE13      29.87F WCI  17
BILLINGS       MOSUNNY   51  29  42 N8        29.87R
LIVINGSTON     HVY SNOW  33  32  96 NW14G24   30.02R VSB 1/4 WCI  23
MILES CITY     PTSUNNY   37  29  72 SE12      29.82F WCI  29
FORSYTH          N/A     34  30  86 N7        29.83R WCI  28
LAUREL           N/A     53  28  38 NW8       29.86S
ROUNDUP          N/A     42  29  60 S9        29.78R
$$

REGIONAL REPORTS...DAKOTAS

CITY           SKY/WX    TMP DP  RH WIND       PRES   REMARKS
WILLISTON      CLOUDY    18  11  74 S12       29.95F WCI   5
MINOT          CLOUDY    15   1  53 SE15      30.11F WCI   0
DICKINSON      LGT SNOW  13   9  84 S21G29    29.95F FOG     WCI  -5
BEACH          CLOUDY    23  21  93 SE17      29.90F WCI   9
CROSBY         CLOUDY    16  10  79 S17G25    29.98F WCI   0
TIOGA          FLURRIES  10  10 100 SE23      30.02F WCI -10
WATFORD CITY   PTSUNNY   18  10  73 SE17G23   29.96F WCI   2
BISMARCK       CLOUDY    13   0  56 SE18      30.18F WCI  -4
GRAND FORKS    CLOUDY     0  -9  65 S16       30.47F WCI -20
FARGO          CLOUDY     3  -8  60 SE15      30.49F WCI -16
BUFFALO SD       N/A     23  20  88 SE9       29.88F WCI  13
RAPID CITY     CLOUDY    36  31  82 S9        29.93F WCI  29
$$

REGIONAL REPORTS...WYOMING/IDAHO/WASHINGTON

CITY           SKY/WX    TMP DP  RH WIND       PRES   REMARKS
GILLETTE       CLOUDY    39  31  72 SE13      29.88F WCI  31
SHERIDAN       SUNNY     55  33  43 NE3       29.84F
BUFFALO WY     CLOUDY    50  30  46 SE8       29.88F
CODY           SUNNY     54  25  32 W10G16    29.92F
YELLOWSTONE LA   N/A     35  19  52 SW9G21    30.05F WCI  28
IDAHO FALLS    CLOUDY    26  20  77 SW6       30.17R WCI  19
SALMON         CLOUDY    36  30  80 CALM      30.17R
BOISE          SUNNY     34  33  96 CALM      30.34R FOG
SPOKANE        MOSUNNY   37  34  89 SW14      30.21R WCI  28
$$

REGIONAL REPORTS...ALBERTA

CITY           SKY/WX    TMP DP  RH WIND       PRES   REMARKS
EDMONTON       SUNNY     30  25  80 W12       29.76S WCI  21
CALGARY        PTSUNNY   36  28  75 NW8       29.85R WCI  29
LETHBRIDGE     PTSUNNY   45  25  45 W24G33    29.85R
MEDICINE HAT   CLOUDY    32  28  86 NW14G23   29.83R WCI  22
WATERTON GATE    N/A     39  23  52 W15G29      N/A  WCI  31
CARDSTON         N/A     41  25  52 W12G17      N/A
MILK RIVER       N/A     41  27  56 W25G31      N/A
ONEFOUR          N/A     34  32  93 W13G23      N/A  WCI  25
$$

REGIONAL REPORTS...SASKATCHEWAN

CITY           SKY/WX    TMP DP  RH WIND       PRES   REMARKS
SWIFT CURRENT  MOSUNNY   28  25  86 SW18      29.69F WCI  16
REGINA         FLURRIES  16  10  79 S22G30    29.89F WCI  -2
SASKATOON      CLOUDY    18  14  86 SE8       29.83S WCI   7
CYPRESS HILLS    N/A     30  28  93 W3          N/A
VAL MARIE        N/A     21  19  93 S6          N/A  WCI  14
ROCKGLEN         N/A     14  12  92 S16         N/A  WCI  -2
$$



USA.gov is the U.S. government's official web portal to all federal, state and local government web resources and services.